Hilo, HI

9:21 AM HST on December 07, 2016 (GMT -1000)
Hilo International

Weather History for PHTO - October, 2013

Change the Weather History Date:

Thursday, October 31, 2013

  Actual Average Record
Temperature  
Mean Temperature 77 °F 75 °F  
Max Temperature 85 °F 82 °F 89 °F (2015)
Min Temperature 68 °F 68 °F 62 °F (1954)
Degree Days  
Heating Degree Days 0 0  
Month to date heating degree days 0 0  
Since 1 July heating degree days 0 0  
Cooling Degree Days 12 10  
Month to date cooling degree days 376 327  
Year to date cooling degree days 2972 2735  
Growing Degree Days 26 (Base 50)    
Moisture  
Dew Point 70 °F    
Average Humidity 81    
Maximum Humidity 97    
Minimum Humidity 65    
Precipitation  
Precipitation 0.48 in 0.40 in 3.67 in (1967)
Month to date precipitation 6.72 9.77  
Year to date precipitation 75.24 99.65  
Snow  
Snow 0.00 in - - ()
Month to date snowfall 0.0  
Since 1 July snowfall 0.0  
Since 1 September snowfall 0.0  
Snow Depth 0.00 in    
Sea Level Pressure  
Sea Level Pressure 30.07 in    
Wind  
Wind Speed 7 mph (West)    
Max Wind Speed 15 mph    
Max Gust Speed 16 mph    
Visibility 9 miles    
Events Rain    
T = Trace of Precipitation, MM = Missing Value Source: NWS Daily Summary

Daily Weather History Graph

Daily Weather History Graph

Search for Another Location

Airport or City:

Trip Planner

Search our weather history database for the weather conditions in past years. The results will help you decide how hot, cold, wet, or windy it might be!

Date:

Astronomy

Oct. 31, 2013 Rise Set
Actual Time 6:21 AM HST 5:46 PM HST
Civil Twilight 5:58 AM HST 6:08 PM HST
Nautical Twilight 5:32 AM HST 6:34 PM HST
Astronomical Twilight 5:06 AM HST 7:00 PM HST
Moon 3:43 AM HST (10/31) 3:53 PM HST (10/31)
Length of Visible Light 12h 10m
Length of Day
11h 25m
Waning Crescent, 8% of the Moon is Illuminated
Oct 31
Waning Crescent
Nov 3
New
Nov 9
First Quarter
Nov 17
Full
Nov 25
Last Quarter

Hourly Weather History & Observations

Time (HST) Temp. Heat Index Dew Point Humidity Pressure Visibility Wind Dir Wind Speed Gust Speed Precip Events Conditions
12:28 AM 71.1 °F - 70.0 °F 96% 30.11 in 1.8 mi SW 3.5 mph - 0.08 in Rain Heavy Rain
12:42 AM 71.1 °F - 70.0 °F 96% 30.10 in 3.0 mi WSW 5.8 mph - 0.27 in Rain Rain
12:53 AM 71.1 °F - 70.0 °F 96% 30.10 in 2.5 mi WSW 6.9 mph - 0.33 in Rain Heavy Rain
1:02 AM 71.1 °F - 70.0 °F 96% 30.10 in 5.0 mi WNW 9.2 mph - 0.04 in Rain Rain
1:46 AM 71.1 °F - 69.1 °F 93% 30.08 in 10.0 mi West 8.1 mph - 0.15 in   Overcast
1:53 AM 71.1 °F - 69.1 °F 93% 30.08 in 10.0 mi WSW 9.2 mph - 0.15 in   Overcast
2:53 AM 71.1 °F - 68.0 °F 90% 30.06 in 10.0 mi WSW 5.8 mph - N/A   Overcast
3:53 AM 70.0 °F - 68.0 °F 93% 30.06 in 10.0 mi SW 6.9 mph - N/A   Mostly Cloudy
4:53 AM 70.0 °F - 66.9 °F 90% 30.05 in 10.0 mi SW 6.9 mph - N/A   Clear
5:53 AM 69.1 °F - 66.0 °F 90% 30.06 in 10.0 mi SW 8.1 mph - N/A   Partly Cloudy
6:53 AM 69.1 °F - 66.0 °F 90% 30.08 in 10.0 mi WSW 3.5 mph - N/A   Scattered Clouds
7:53 AM 73.9 °F - 68.0 °F 82% 30.09 in 10.0 mi WSW 5.8 mph - N/A   Scattered Clouds
8:53 AM 79.0 °F - 68.0 °F 69% 30.10 in 10.0 mi Calm Calm - N/A   Clear
9:53 AM 80.1 °F 83.2 °F 70.0 °F 71% 30.11 in 10.0 mi East 4.6 mph - N/A   Scattered Clouds
10:53 AM 82.0 °F 85.5 °F 69.1 °F 65% 30.09 in 10.0 mi ESE 5.8 mph - N/A   Partly Cloudy
11:53 AM 84.0 °F 89.0 °F 71.1 °F 65% 30.06 in 10.0 mi East 9.2 mph - N/A   Clear
12:53 PM 84.0 °F 89.6 °F 72.0 °F 67% 30.04 in 10.0 mi NE 8.1 mph - N/A   Scattered Clouds
1:53 PM 82.9 °F 87.5 °F 71.1 °F 67% 30.02 in 10.0 mi NE 10.4 mph - N/A   Partly Cloudy
2:53 PM 82.9 °F 87.0 °F 70.0 °F 65% 30.02 in 10.0 mi NE 9.2 mph - N/A   Partly Cloudy
3:53 PM 82.0 °F 85.9 °F 70.0 °F 67% 30.03 in 10.0 mi ENE 10.4 mph - N/A   Partly Cloudy
4:53 PM 80.1 °F 82.9 °F 69.1 °F 69% 30.04 in 10.0 mi NE 6.9 mph - N/A   Partly Cloudy
5:35 PM 79.0 °F - 70.0 °F 74% 30.05 in 10.0 mi North 8.1 mph - N/A   Mostly Cloudy
5:53 PM 75.0 °F - 71.1 °F 87% 30.06 in 2.0 mi Variable 4.6 mph 17.3 mph 0.00 in Rain Heavy Rain
6:02 PM 75.0 °F - 71.1 °F 87% 30.06 in 10.0 mi Calm Calm - 0.08 in Rain Rain
6:13 PM 75.9 °F - 71.1 °F 85% 30.06 in 10.0 mi NE 3.5 mph - 0.08 in Rain Rain
6:53 PM 75.0 °F - 71.1 °F 87% 30.07 in 10.0 mi NNE 4.6 mph - 0.08 in Rain Rain
7:53 PM 73.9 °F - 71.1 °F 91% 30.09 in 10.0 mi Calm Calm - 0.00 in Rain Rain
8:53 PM 73.0 °F - 71.1 °F 93% 30.10 in 10.0 mi West 3.5 mph - 0.00 in Rain Rain
9:53 PM 71.1 °F - 69.1 °F 93% 30.10 in 10.0 mi SW 3.5 mph - 0.00 in Rain Rain
10:53 PM 70.0 °F - 68.0 °F 93% 30.09 in 10.0 mi WSW 4.6 mph - 0.00 in Rain Rain